Coffman Cove, AK

3:03 AM AKST on February 13, 2016 (GMT -0900)
Ketchikan International

Weather History for PAKT - December, 2012

Change the Weather History Date:

Wednesday, December 12, 2012

  Actual Average Record
Temperature  
Mean Temperature 36 °F -  
Max Temperature 41 °F 41 °F 62 °F (1962)
Min Temperature 33 °F 31 °F 5 °F (1971)
Degree Days  
Heating Degree Days 29    
Moisture  
Dew Point 34 °F    
Average Humidity 92    
Maximum Humidity 96    
Minimum Humidity 83    
Precipitation  
Precipitation 0.69 in - - ()
Sea Level Pressure  
Sea Level Pressure 29.81 in    
Wind  
Wind Speed 7 mph (SSE)    
Max Wind Speed 20 mph    
Max Gust Speed 29 mph    
Visibility 9 miles    
Events Rain    
Averages and records for this station are not official NWS values.
T = Trace of Precipitation, MM = Missing Value Source: NWS Daily Summary

Daily Weather History Graph

Daily Weather History Graph

Search for Another Location

Airport or City:

Trip Planner

Search our weather history database for the weather conditions in past years. The results will help you decide how hot, cold, wet, or windy it might be!

Date:

Astronomy

Dec. 12, 2012 Rise Set
Actual Time 8:05 AM AKST 3:16 PM AKST
Civil Twilight 7:19 AM AKST 4:01 PM AKST
Nautical Twilight 6:31 AM AKST 4:49 PM AKST
Astronomical Twilight 5:47 AM AKST 5:34 PM AKST
Moon 7:14 AM AKST (12/12) 3:03 PM AKST (12/12)
Length of Visible Light 8h 42m
Length of Day
7h 10m
Waning Crescent, 0% of the Moon is Illuminated
Dec 12
Waning Crescent
Dec 12
New
Dec 19
First Quarter
Dec 28
Full
Jan 4
Last Quarter

Hourly Weather History & Observations

Time (AKST) Temp. Windchill Dew Point Humidity Pressure Visibility Wind Dir Wind Speed Gust Speed Precip Events Conditions
12:53 AM 37.9 °F 30.9 °F 33.1 °F 83% 29.83 in 10.0 mi NW 10.4 mph 18.4 mph N/A   Clear
1:53 AM 36.0 °F 30.3 °F 33.1 °F 89% 29.85 in 10.0 mi WNW 6.9 mph - N/A   Clear
3:53 AM 36.0 °F 31.1 °F 32.0 °F 86% 29.87 in 10.0 mi NW 5.8 mph - N/A   Clear
4:53 AM 35.1 °F 31.0 °F 33.1 °F 92% 29.89 in 10.0 mi WNW 4.6 mph - N/A   Clear
5:53 AM 34.0 °F 31.0 °F 32.0 °F 92% 29.88 in 10.0 mi WNW 3.5 mph - N/A   Clear
6:53 AM 34.0 °F - 32.0 °F 92% 29.90 in 10.0 mi Calm Calm - N/A   Clear
7:53 AM 33.1 °F - 30.9 °F 92% 29.89 in 10.0 mi Calm Calm - N/A   Mostly Cloudy
8:53 AM 34.0 °F 31.0 °F 32.0 °F 92% 29.90 in 10.0 mi SSE 3.5 mph - N/A   Mostly Cloudy
9:53 AM 35.1 °F 32.2 °F 33.1 °F 92% 29.90 in 10.0 mi SSE 3.5 mph - N/A   Overcast
10:53 AM 36.0 °F 33.3 °F 33.1 °F 89% 29.91 in 10.0 mi SSE 3.5 mph - N/A   Overcast
11:53 AM 36.0 °F 31.1 °F 34.0 °F 93% 29.90 in 10.0 mi SSE 5.8 mph - N/A   Overcast
12:53 PM 36.0 °F 31.1 °F 33.1 °F 89% 29.88 in 10.0 mi SSE 5.8 mph - N/A   Overcast
1:53 PM 36.0 °F 31.1 °F 33.1 °F 89% 29.87 in 10.0 mi SSE 5.8 mph - 0.00 in Rain Light Rain
2:51 PM 35.6 °F 29.9 °F 33.8 °F 93% 29.85 in 10.0 mi SSE 6.9 mph - 0.02 in Rain Light Rain
2:53 PM 35.1 °F 29.3 °F 34.0 °F 96% 29.85 in 10.0 mi SSE 6.9 mph - 0.02 in Rain Light Rain
3:53 PM 34.0 °F 28.8 °F 33.1 °F 96% 29.83 in 8.0 mi South 5.8 mph - 0.04 in Rain Light Rain
4:53 PM 34.0 °F 28.8 °F 33.1 °F 96% 29.80 in 4.0 mi South 5.8 mph - 0.06 in Rain Light Rain
5:53 PM 34.0 °F 27.2 °F 33.1 °F 96% 29.76 in 6.0 mi South 8.1 mph - 0.08 in Rain Light Rain
6:53 PM 34.0 °F 27.2 °F 33.1 °F 96% 29.72 in 7.0 mi SSE 8.1 mph - 0.06 in Rain Light Rain
7:53 PM 37.9 °F 27.9 °F 36.0 °F 93% 29.70 in 6.0 mi SE 19.6 mph 25.3 mph 0.14 in Rain Rain
8:53 PM 37.0 °F 26.7 °F 36.0 °F 96% 29.69 in 6.0 mi SE 19.6 mph 27.6 mph 0.08 in Rain Light Rain
9:53 PM 37.9 °F 28.9 °F 36.0 °F 93% 29.64 in 10.0 mi SE 16.1 mph - 0.03 in Rain Light Rain
10:53 PM 39.0 °F 29.3 °F 37.0 °F 93% 29.60 in 6.0 mi SE 19.6 mph 23.0 mph 0.07 in Rain Light Rain
11:53 PM 41.0 °F 32.5 °F 39.9 °F 96% 29.59 in 4.0 mi SE 17.3 mph 28.8 mph 0.11 in Rain Rain